Weather History for Mineola, TX

Change the Weather History Date:

Friday, October 12, 2012

  Actual Average (KTYR) Record (KTYR)
Temperature  
Mean Temperature 73 °F 68 °F  
Max Temperature 82 °F 79 °F 95 °F (1963)
Min Temperature 64 °F 57 °F 36 °F (1946)
Degree Days  
Heating Degree Days 0 1  
Month to date heating degree days 12  
Since 1 July heating degree days 17  
Cooling Degree Days 8 5  
Month to date cooling degree days 70  
Year to date cooling degree days 2334  
Growing Degree Days 23 (Base 50)    
Moisture  
Dew Point 69 °F    
Average Humidity 88    
Maximum Humidity 100    
Minimum Humidity 66    
Precipitation  
Precipitation 0.00 in 0.15 in 4.26 in (1943)
Month to date precipitation 1.64  
Year to date precipitation 34.24  
Snow  
Snow 0.00 in - - ()
Month to date snowfall  
Since 1 July snowfall  
Since 1 September snowfall  
Snow Depth -    
Sea Level Pressure  
Sea Level Pressure 30.16 in    
Wind  
Wind Speed 2 mph (SSE)    
Max Wind Speed 9 mph    
Max Gust Speed -    
Visibility 8 miles    
Events      
T = Trace of Precipitation, MM = Missing Value Source: NWS Daily Summary

Daily Weather History Graph

Daily Weather History Graph

Search for Another Location

Airport:

Trip Planner

Search our weather history database for the weather conditions in past years. The results will help you decide how hot, cold, wet, or windy it might be!

Date:

Astronomy

Oct. 12, 2012 Rise Set
Actual Time 7:24 AM CDT 6:51 PM CDT
Civil Twilight 6:59 AM CDT 7:16 PM CDT
Nautical Twilight 6:30 AM CDT 7:45 PM CDT
Astronomical Twilight 6:02 AM CDT 8:13 PM CDT
Moon 4:17 AM CDT (10/12) 4:55 PM CDT (10/12)
Length of Visible Light 12h 17m
Length of Day
11h 27m
Waning Crescent, 10% of the Moon is Illuminated
Oct 12
Waning Crescent
Oct 15
New
Oct 21
First Quarter
Oct 29
Full
Nov 6
Last Quarter

Hourly Weather History & Observations

Time (CDT) Temp. Heat Index Dew Point Humidity Pressure Visibility Wind Dir Wind Speed Gust Speed Precip Events Conditions
12:15 AM 69.8 °F - 68.0 °F 94% 30.15 in 8.0 mi Calm Calm - N/A   Clear
12:35 AM 68.0 °F - 66.2 °F 94% 30.15 in 7.0 mi Calm Calm - N/A   Clear
12:55 AM 69.8 °F - 68.0 °F 94% 30.15 in 9.0 mi SSE 3.5 mph - N/A   Clear
1:35 AM 71.6 °F - 69.8 °F 94% 30.14 in 9.0 mi SSE 3.5 mph - N/A   Clear
2:15 AM 71.6 °F - 69.8 °F 94% 30.15 in 9.0 mi South 3.5 mph - N/A   Partly Cloudy
2:35 AM 71.6 °F - 69.8 °F 94% 30.15 in 10.0 mi South 4.6 mph - N/A   Clear
2:55 AM 71.6 °F - 69.8 °F 94% 30.15 in 10.0 mi SSE 4.6 mph - N/A   Clear
3:15 AM 71.6 °F - 69.8 °F 94% 30.15 in 10.0 mi SSE 3.5 mph - N/A   Clear
3:35 AM 71.6 °F - 69.8 °F 94% 30.15 in 9.0 mi SSE 4.6 mph - N/A   Clear
3:55 AM 71.6 °F - 69.8 °F 94% 30.15 in 8.0 mi Calm Calm - N/A   Clear
4:15 AM 69.8 °F - 69.8 °F 100% 30.14 in 7.0 mi Calm Calm - N/A   Clear
4:35 AM 68.0 °F - 68.0 °F 100% 30.15 in 4.0 mi Calm Calm - N/A   Clear
5:15 AM 66.2 °F - 66.2 °F 100% 30.15 in 4.0 mi Calm Calm - N/A   Clear
5:35 AM 66.2 °F - 66.2 °F 100% 30.16 in 4.0 mi Calm Calm - N/A   Clear
5:55 AM 64.4 °F - 64.4 °F 100% 30.16 in 3.0 mi Calm Calm - N/A   Clear
6:15 AM 64.4 °F - 64.4 °F 100% 30.16 in 3.0 mi Calm Calm - N/A   Clear
6:35 AM 64.4 °F - 64.4 °F 100% 30.16 in 3.0 mi Calm Calm - N/A   Clear
6:55 AM 64.4 °F - 64.4 °F 100% 30.17 in 4.0 mi Calm Calm - N/A   Partly Cloudy
7:15 AM 64.4 °F - 64.4 °F 100% 30.17 in 4.0 mi Calm Calm - N/A   Partly Cloudy
7:35 AM 64.4 °F - 64.4 °F 100% 30.18 in 3.0 mi Calm Calm - N/A   Mostly Cloudy
8:15 AM 66.2 °F - 66.2 °F 100% 30.19 in 2.0 mi Calm Calm - N/A   Overcast
8:35 AM 68.0 °F - 68.0 °F 100% 30.20 in 2.0 mi SE 3.5 mph - N/A   Overcast
8:55 AM 69.8 °F - 69.8 °F 100% 30.20 in 3.0 mi SE 4.6 mph - N/A   Mostly Cloudy
9:15 AM 71.6 °F - 71.6 °F 100% 30.20 in 3.0 mi SSE 5.8 mph - N/A   Scattered Clouds
9:35 AM 73.4 °F - 71.6 °F 94% 30.21 in 5.0 mi South 6.9 mph - N/A   Partly Cloudy
9:55 AM 73.4 °F - 71.6 °F 94% 30.21 in 8.0 mi SSE 5.8 mph - N/A   Partly Cloudy
10:15 AM 73.4 °F - 71.6 °F 94% 30.21 in 7.0 mi South 4.6 mph - N/A   Partly Cloudy
10:35 AM 75.2 °F - 71.6 °F 89% 30.22 in 8.0 mi South 5.8 mph - N/A   Clear
11:55 AM 78.8 °F - 71.6 °F 78% 30.21 in 9.0 mi SSW 8.1 mph - N/A   Mostly Cloudy
12:15 PM 80.6 °F 84.6 °F 71.6 °F 74% 30.20 in 9.0 mi South 6.9 mph - N/A   Scattered Clouds
12:35 PM 80.6 °F 84.6 °F 71.6 °F 74% 30.20 in 8.0 mi SSE 9.2 mph - N/A   Mostly Cloudy
12:55 PM 80.6 °F 84.6 °F 71.6 °F 74% 30.19 in 9.0 mi SSE 3.5 mph - N/A   Mostly Cloudy
1:35 PM 80.6 °F 83.9 °F 69.8 °F 70% 30.18 in 10.0 mi South 4.6 mph - N/A   Mostly Cloudy
2:15 PM 80.6 °F 83.9 °F 69.8 °F 70% 30.16 in 10.0 mi SSE 3.5 mph - N/A   Mostly Cloudy
2:35 PM 82.4 °F 86.3 °F 69.8 °F 66% 30.16 in 9.0 mi ESE 4.6 mph - N/A   Mostly Cloudy
3:15 PM 82.4 °F 87.2 °F 71.6 °F 70% 30.15 in 10.0 mi SE 4.6 mph - N/A   Clear
3:35 PM 82.4 °F 86.3 °F 69.8 °F 66% 30.15 in 10.0 mi SSE 3.5 mph - N/A   Partly Cloudy
3:55 PM 82.4 °F 86.3 °F 69.8 °F 66% 30.15 in 10.0 mi SSE 3.5 mph - N/A   Partly Cloudy
4:35 PM 82.4 °F 87.2 °F 71.6 °F 70% - 10.0 mi North - - N/A   Mostly Cloudy
4:55 PM 80.6 °F 84.6 °F 71.6 °F 74% 30.14 in 10.0 mi ESE 5.8 mph - N/A   Scattered Clouds
5:15 PM 80.6 °F 84.6 °F 71.6 °F 74% 30.14 in 10.0 mi SE 4.6 mph - N/A   Scattered Clouds
6:15 PM 80.6 °F 84.6 °F 71.6 °F 74% 30.13 in 10.0 mi Calm Calm - N/A   Partly Cloudy
6:35 PM 78.8 °F - 71.6 °F 78% 30.13 in 9.0 mi Calm Calm - N/A   Clear
6:55 PM 77.0 °F - 71.6 °F 83% 30.12 in 9.0 mi Calm Calm - N/A   Clear
7:15 PM 75.2 °F - 71.6 °F 89% 30.12 in 10.0 mi Calm Calm - N/A   Clear
7:35 PM 75.2 °F - 71.6 °F 89% 30.12 in 10.0 mi Calm Calm - N/A   Clear
7:55 PM 75.2 °F - 71.6 °F 89% 30.12 in 10.0 mi Calm Calm - N/A   Clear
8:15 PM 75.2 °F - 69.8 °F 83% 30.13 in 10.0 mi Calm Calm - N/A   Clear
8:35 PM 73.4 °F - 69.8 °F 88% 30.14 in 10.0 mi Calm Calm - N/A   Mostly Cloudy
9:15 PM 73.4 °F - 69.8 °F 88% 30.15 in 10.0 mi Calm Calm - N/A   Overcast
9:35 PM 71.6 °F - 69.8 °F 94% 30.15 in 10.0 mi Calm Calm - N/A   Partly Cloudy
9:55 PM 69.8 °F - 68.0 °F 94% 30.15 in 8.0 mi Calm Calm - N/A   Clear
10:15 PM 71.6 °F - 68.0 °F 88% 30.15 in 9.0 mi Calm Calm - N/A   Clear
10:35 PM 71.6 °F - 66.2 °F 83% 30.15 in 10.0 mi SE 3.5 mph - N/A   Clear
10:55 PM 71.6 °F - 66.2 °F 83% 30.15 in 10.0 mi SE 4.6 mph - N/A   Clear
11:15 PM 71.6 °F - 64.4 °F 78% 30.14 in 10.0 mi SSE 4.6 mph - N/A   Clear
11:35 PM 71.6 °F - 64.4 °F 78% 30.14 in 10.0 mi SE 5.8 mph - N/A   Clear